Precipitable_Water
0.77 0.72 0.72 0.58 0.53 0.45 0.41 0.40 0.40 0.38 0.37 0.34 0.31 0.29 0.26 0.24 0.25 0.24 0.23 0.21 0.21 0.20
0.81 0.76 0.63 0.57 0.55 0.46 0.45 0.42 0.40 0.37 0.36 0.36 0.32 0.29 0.27 0.25 0.25 0.24 0.24 0.23 0.22 0.20
0.84 0.76 0.65 0.61 0.51 0.45 0.45 0.44 0.42 0.38 0.35 0.33 0.31 0.29 0.27 0.26 0.26 0.24 0.25 0.23 0.20 0.20
0.86 0.74 0.69 0.63 0.50 0.45 0.43 0.43 0.41 0.38 0.36 0.32 0.30 0.29 0.27 0.26 0.26 0.24 0.23 0.21 0.18 0.18
0.85 0.77 0.72 0.63 0.49 0.45 0.41 0.43 0.41 0.39 0.36 0.33 0.30 0.29 0.27 0.26 0.26 0.24 0.20 0.17 0.17 0.17
0.83 0.78 0.70 0.58 0.50 0.45 0.43 0.42 0.41 0.39 0.34 0.31 0.29 0.29 0.30 0.28 0.27 0.23 0.18 0.18 0.17 0.17
0.81 0.73 0.64 0.57 0.51 0.46 0.43 0.40 0.39 0.37 0.33 0.31 0.30 0.29 0.29 0.27 0.26 0.22 0.20 0.22 0.21 0.20
0.77 0.70 0.65 0.57 0.52 0.46 0.43 0.40 0.38 0.35 0.33 0.31 0.27 0.28 0.26 0.26 0.23 0.21 0.22 0.23 0.24 0.23
0.76 0.73 0.64 0.58 0.52 0.48 0.46 0.42 0.37 0.34 0.30 0.25 0.25 0.26 0.24 0.22 0.22 0.23 0.23 0.22 0.24 0.25
0.78 0.73 0.66 0.61 0.53 0.50 0.49 0.44 0.37 0.32 0.27 0.23 0.23 0.24 0.23 0.24 0.23 0.23 0.24 0.24 0.23 0.24
0.77 0.74 0.70 0.63 0.55 0.54 0.50 0.44 0.35 0.28 0.24 0.23 0.22 0.23 0.23 0.23 0.24 0.24 0.25 0.25 0.25 0.24
0.79 0.75 0.71 0.64 0.59 0.55 0.49 0.44 0.36 0.28 0.24 0.22 0.22 0.24 0.23 0.22 0.22 0.22 0.24 0.25 0.26 0.25
0.82 0.76 0.72 0.68 0.61 0.54 0.50 0.44 0.37 0.28 0.26 0.24 0.24 0.25 0.23 0.22 0.22 0.21 0.22 0.25 0.27 0.27
0.83 0.77 0.74 0.68 0.60 0.54 0.52 0.46 0.38 0.27 0.26 0.25 0.27 0.25 0.24 0.25 0.22 0.20 0.20 0.22 0.23 0.26
Wind_Speed
13 12 11 10 9 8 8 7 6 5 5 4 4 4 3 3 3 2 2 3 3 4
15 13 12 11 10 10 9 8 7 6 6 5 5 4 4 4 3 3 3 3 3 4
16 15 14 13 12 11 10 10 9 8 7 6 6 5 5 5 4 3 3 3 3 4
18 16 15 14 13 12 11 11 10 9 9 8 7 7 6 6 5 4 3 3 3 4
19 18 17 15 14 13 13 12 12 11 10 9 9 8 8 7 6 5 4 4 4 4
21 19 18 17 16 15 14 13 13 13 12 11 10 9 9 8 7 6 5 5 4 5
22 21 19 18 17 16 15 15 14 13 12 11 11 10 10 9 8 7 6 5 5 6
23 21 20 19 18 17 16 15 15 14 13 12 12 11 11 10 9 8 7 7 6 7
22 22 21 20 18 18 17 16 15 15 14 13 12 12 12 11 10 10 9 8 8 8
23 22 21 20 19 19 18 17 17 16 16 15 14 14 13 12 12 11 10 10 10 10
23 23 22 21 20 20 19 18 18 18 18 17 16 16 15 14 13 12 12 11 11 11
24 23 23 22 21 21 20 19 19 19 19 19 18 17 16 15 14 14 13 13 12 12
25 24 24 23 22 21 21 20 20 20 21 20 19 19 18 17 16 15 15 14 14 14
25 24 24 23 22 21 21 20 20 21 22 22 21 20 19 19 18 17 16 16 15 15
Wind_Direction
226 234 241 241 244 246 249 252 254 251 253 258 258 256 254 254 254 257 271 293 308 320
229 235 237 240 245 248 248 249 245 244 249 252 252 249 247 248 246 254 276 293 314 327
231 234 236 240 244 245 247 242 241 242 245 250 249 244 240 242 243 247 264 281 310 326
231 233 236 241 242 243 243 239 240 241 244 246 246 242 242 244 239 239 247 274 299 321
230 233 236 239 238 239 240 238 239 241 243 245 244 241 240 233 231 233 244 261 288 309
230 231 235 236 236 238 239 240 240 240 241 242 242 238 233 229 231 234 242 259 279 300
229 230 233 233 234 237 239 238 237 237 237 238 237 234 231 228 229 231 242 256 274 294
227 228 230 231 233 235 235 233 231 233 235 235 235 232 228 224 227 233 242 255 271 287
222 225 228 229 230 230 230 229 230 232 233 231 229 222 222 225 232 237 245 254 268 282
223 224 226 227 228 228 228 229 231 233 232 228 227 224 226 230 236 243 249 256 266 279
222 223 225 226 227 227 229 230 233 233 230 228 228 227 230 233 239 246 252 258 266 276
223 224 225 227 228 227 229 232 235 233 229 227 229 230 232 236 242 248 253 259 265 274
224 225 225 227 227 228 230 233 236 233 230 229 231 232 234 239 244 249 254 260 265 272
224 225 225 225 226 228 231 234 237 233 231 230 232 236 237 240 246 250 254 260 266 272